Time,TemperatureF,DewpointF,PressureIn,WindDirection,WindDirectionDegrees,WindSpeedMPH,WindSpeedGustMPH,Humidity,HourlyPrecipIn,Conditions,Clouds,dailyrainin,SolarRadiationWatts/m^2,SoftwareType,DateUTC
2014-01-02 00:02:00,32.0,30.0,-100.00,NE,46,2.0,7.0,93,0.00,,,0.02,0.000000,,2014-01-02 08:02:00,
2014-01-02 00:42:00,34.0,32.0,-100.00,NNW,346,1.0,7.0,93,-99.99,,,0.02,0.000000,,2014-01-02 08:42:00,
2014-01-02 00:53:00,34.0,32.0,-100.00,NNW,346,1.0,7.0,93,-99.99,,,0.02,0.000000,,2014-01-02 08:53:00,
2014-01-02 01:02:00,34.0,32.0,-100.00,NNW,346,1.0,7.0,93,-99.99,,,0.02,0.000000,,2014-01-02 09:02:00,
2014-01-02 01:43:00,33.0,31.0,-100.00,ENE,63,1.0,6.0,93,0.00,,,0.02,0.000000,,2014-01-02 09:43:00,
2014-01-02 01:53:00,33.0,31.0,-100.00,ENE,63,1.0,6.0,93,0.00,,,0.02,0.000000,,2014-01-02 09:53:00,
2014-01-02 02:03:00,33.0,31.0,-100.00,ENE,63,1.0,6.0,93,0.00,,,0.02,0.000000,,2014-01-02 10:03:00,
2014-01-02 02:43:00,33.0,31.0,-100.00,NNE,26,1.0,9.0,93,0.00,,,0.02,0.000000,,2014-01-02 10:43:00,
2014-01-02 02:53:00,33.0,31.0,-100.00,NNE,26,1.0,9.0,93,0.00,,,0.02,0.000000,,2014-01-02 10:53:00,
2014-01-02 03:02:00,33.0,31.0,-100.00,NNE,26,1.0,9.0,93,0.00,,,0.02,0.000000,,2014-01-02 11:02:00,
2014-01-02 03:42:00,32.0,30.0,-100.00,ENE,78,2.0,7.0,93,0.00,,,0.02,0.000000,,2014-01-02 11:42:00,
2014-01-02 03:53:00,32.0,30.0,-100.00,ENE,78,2.0,7.0,93,0.00,,,0.02,0.000000,,2014-01-02 11:53:00,
2014-01-02 04:02:00,32.0,30.0,-100.00,ENE,78,2.0,7.0,93,0.00,,,0.02,0.000000,,2014-01-02 12:02:00,
2014-01-02 04:42:00,34.0,32.0,-100.00,NNE,26,1.0,5.0,93,0.00,,,0.02,0.000000,,2014-01-02 12:42:00,
2014-01-02 04:52:00,34.0,32.0,-100.00,NNE,26,1.0,5.0,93,0.00,,,0.02,0.000000,,2014-01-02 12:52:00,
2014-01-02 05:02:00,34.0,32.0,-100.00,NNE,26,1.0,5.0,93,0.00,,,0.02,0.000000,,2014-01-02 13:02:00,
2014-01-02 05:42:00,34.0,32.0,-100.00,North,4,2.0,7.0,93,0.00,,,0.02,0.000000,,2014-01-02 13:42:00,
2014-01-02 05:52:00,34.0,32.0,-100.00,North,4,2.0,7.0,93,0.00,,,0.02,0.000000,,2014-01-02 13:52:00,
2014-01-02 06:02:00,34.0,32.0,-100.00,North,4,2.0,7.0,93,0.00,,,0.02,0.000000,,2014-01-02 14:02:00,
2014-01-02 06:42:00,34.0,32.0,-100.00,SW,223,1.0,6.0,93,0.00,,,0.02,0.000000,,2014-01-02 14:42:00,
2014-01-02 06:52:00,34.0,32.0,-100.00,SW,223,1.0,6.0,93,0.00,,,0.02,0.000000,,2014-01-02 14:52:00,
2014-01-02 07:02:00,34.0,32.0,-100.00,SW,223,1.0,6.0,93,0.00,,,0.02,0.000000,,2014-01-02 15:02:00,
2014-01-02 07:44:00,33.0,31.0,-100.00,WSW,252,1.0,5.0,94,0.00,,,0.02,0.000000,,2014-01-02 15:44:00,
2014-01-02 07:53:00,33.0,31.0,-100.00,WSW,252,1.0,5.0,94,0.00,,,0.02,0.000000,,2014-01-02 15:53:00,
2014-01-02 08:03:00,33.0,31.0,-100.00,WSW,252,1.0,5.0,94,0.00,,,0.02,0.000000,,2014-01-02 16:03:00,
2014-01-02 08:43:00,35.0,33.0,-100.00,NNE,33,1.0,4.0,94,0.01,,,0.03,0.000000,,2014-01-02 16:43:00,
2014-01-02 08:52:00,35.0,33.0,-100.00,NNE,33,1.0,4.0,94,0.01,,,0.03,0.000000,,2014-01-02 16:52:00,
2014-01-02 09:02:00,35.0,33.0,-100.00,NNE,33,1.0,4.0,94,0.01,,,0.03,0.000000,,2014-01-02 17:02:00,
2014-01-02 09:43:00,36.0,34.0,-100.00,NE,41,1.0,6.0,94,0.00,,,0.03,31.000000,,2014-01-02 17:43:00,
2014-01-02 09:52:00,36.0,34.0,-100.00,NE,41,1.0,6.0,94,0.00,,,0.03,31.000000,,2014-01-02 17:52:00,
2014-01-02 10:02:00,36.0,34.0,-100.00,NE,41,1.0,6.0,94,0.00,,,0.03,31.000000,,2014-01-02 18:02:00,
2014-01-02 10:43:00,39.0,37.0,-100.00,NNW,343,1.0,6.0,94,0.00,,,0.03,92.000000,,2014-01-02 18:43:00,
2014-01-02 10:53:00,39.0,37.0,-100.00,NNW,343,1.0,6.0,94,0.00,,,0.03,92.000000,,2014-01-02 18:53:00,
2014-01-02 11:01:00,39.0,37.0,-100.00,NNW,343,1.0,6.0,94,0.00,,,0.03,92.000000,,2014-01-02 19:01:00,
2014-01-02 11:42:00,42.0,40.0,-100.00,WSW,246,1.0,5.0,93,0.00,,,-99.99,157.000000,,2014-01-02 19:42:00,
2014-01-02 11:52:00,42.0,40.0,-100.00,WSW,246,1.0,5.0,93,0.00,,,-99.99,157.000000,,2014-01-02 19:52:00,
2014-01-02 12:01:00,42.0,40.0,-100.00,WSW,246,1.0,5.0,93,0.00,,,-99.99,157.000000,,2014-01-02 20:01:00,
2014-01-02 12:42:00,43.0,40.0,-100.00,NW,326,1.0,4.0,90,0.00,,,0.03,131.000000,,2014-01-02 20:42:00,
2014-01-02 12:52:00,43.0,40.0,-100.00,NW,326,1.0,4.0,90,0.00,,,0.03,131.000000,,2014-01-02 20:52:00,
2014-01-02 13:02:00,43.0,40.0,-100.00,NW,326,1.0,4.0,90,0.00,,,0.03,131.000000,,2014-01-02 21:02:00,
2014-01-02 13:44:00,45.0,41.0,-100.00,North,359,1.0,6.0,85,0.00,,,0.02,124.000000,,2014-01-02 21:44:00,
2014-01-02 13:53:00,45.0,41.0,-100.00,North,359,1.0,6.0,85,0.00,,,0.02,124.000000,,2014-01-02 21:53:00,
2014-01-02 14:03:00,45.0,41.0,-100.00,North,359,1.0,6.0,85,0.00,,,0.02,124.000000,,2014-01-02 22:03:00,
2014-01-02 14:43:00,46.0,36.0,-100.00,South,179,2.0,10.0,68,0.00,,,0.02,143.000000,,2014-01-02 22:43:00,
2014-01-02 14:53:00,46.0,36.0,-100.00,South,179,2.0,10.0,68,0.00,,,0.02,143.000000,,2014-01-02 22:53:00,
2014-01-02 15:02:00,46.0,36.0,-100.00,South,179,2.0,10.0,68,0.00,,,0.02,143.000000,,2014-01-02 23:02:00,
2014-01-02 15:43:00,46.0,35.0,-100.00,WSW,252,3.0,12.0,65,0.00,,,0.02,70.000000,,2014-01-02 23:43:00,
2014-01-02 15:53:00,46.0,35.0,-100.00,WSW,252,3.0,12.0,65,0.00,,,0.02,70.000000,,2014-01-02 23:53:00,
2014-01-02 16:02:00,46.0,35.0,-100.00,WSW,252,3.0,12.0,65,0.00,,,0.02,70.000000,,2014-01-03 00:02:00,
2014-01-02 16:52:00,44.0,33.0,-100.00,SW,216,2.0,9.0,66,0.00,,,0.02,54.000000,,2014-01-03 00:52:00,
2014-01-02 17:02:00,44.0,33.0,-100.00,SW,216,2.0,9.0,66,0.00,,,0.02,54.000000,,2014-01-03 01:02:00,
2014-01-02 17:42:00,44.0,33.0,-100.00,SW,223,1.0,7.0,66,0.00,,,0.02,2.000000,,2014-01-03 01:42:00,
2014-01-02 17:52:00,44.0,33.0,-100.00,SW,223,1.0,7.0,66,0.00,,,0.02,2.000000,,2014-01-03 01:52:00,
2014-01-02 18:02:00,44.0,33.0,-100.00,SW,223,1.0,7.0,66,0.00,,,0.02,2.000000,,2014-01-03 02:02:00,
2014-01-02 18:42:00,43.0,33.0,-100.00,NNE,25,2.0,10.0,67,0.00,,,0.01,0.000000,,2014-01-03 02:42:00,
2014-01-02 18:53:00,43.0,33.0,-100.00,NNE,25,2.0,10.0,67,0.00,,,0.01,0.000000,,2014-01-03 02:53:00,
2014-01-02 19:02:00,43.0,33.0,-100.00,NNE,25,2.0,10.0,67,0.00,,,0.01,0.000000,,2014-01-03 03:02:00,
2014-01-02 19:43:00,43.0,32.0,-100.00,ENE,70,2.0,7.0,66,0.00,,,0.01,0.000000,,2014-01-03 03:43:00,
2014-01-02 19:54:00,43.0,32.0,-100.00,ENE,70,2.0,7.0,66,0.00,,,0.01,0.000000,,2014-01-03 03:54:00,
2014-01-02 20:03:00,43.0,32.0,-100.00,ENE,70,2.0,7.0,66,0.00,,,0.01,0.000000,,2014-01-03 04:03:00,
2014-01-02 23:52:00,34.0,32.0,-100.00,NNE,20,1.0,6.0,93,0.09,,,0.19,0.000000,,2014-01-03 07:52:00,